Regional Weather Roundup
Issued by NWS

Home | Current Version | Previous Version | Graphics & Text | Print | Product List | Glossary On
Versions: 1 2 3 4 5 6 7 8 9 10 11 12 13 14 15 16 17 18 19 20 21 22 23 24 25 26 27
000
ASUS45 KBOU 191107
RWRCO

WEATHER ROUNDUP FOR COLORADO
NATIONAL WEATHER SERVICE DENVER/BOULDER CO
500 AM MDT TUE SEP 19 2017

NOTE: "FAIR" INDICATES FEW OR NO CLOUDS BELOW 12000 FEET WITH NO
SIGNIFICANT WEATHER AND/OR OBSTRUCTIONS TO VISIBILITY.

COZ001>005-013-030-031-191200-
...NORTHWEST COLORADO...

CITY           SKY/WX    TMP DP  RH WIND       PRES   REMARKS
CRAIG          FAIR      43  34  70 VRB3      29.83F
HAYDEN         FAIR      54  26  34 E5        29.87S
MEEKER         FAIR      59  25  27 S7        29.86S
RABBIT EARS PA FAIR      45  21  39 SW10G25   30.09F
STEAMBOAT SPGS FAIR      44  30  59 CALM      29.88F
WALDEN         FAIR      50  18  27 SE14G21   29.94S
$$

COZ006>008-011-191200-
...WEST CENTRAL VALLEYS...

CITY           SKY/WX    TMP DP  RH WIND       PRES   REMARKS
GRAND JUNCTION FAIR      59  29  31 SE10      29.83S
MONTROSE       FAIR      57  26  30 S9        29.96R
EAGLE          FAIR      61  22  22 SW13      29.92S
RIFLE          FAIR      68  20  16 S10G16    29.85S
DELTA          FAIR      58  27  30 MISG      29.92S
NUCLA          FAIR      61  18  18 S9        30.00S
$$

COZ017>023-064>068-191200-
...SOUTHWEST COLORADO...

CITY           SKY/WX    TMP DP  RH WIND       PRES   REMARKS
DURANGO        FAIR      36  30  79 NE3       30.10R
CORTEZ         FAIR      42  28  57 E6        30.03S
PAGOSA SPRINGS FAIR      38  25  58 NE3       30.16S
TELLURIDE      FAIR      54  11  18 SE12G24   30.14F
WOLF CREEK PAS FAIR      34  19  55 SW22G31   30.33S WCI  22
$$

COZ009-010-012-014-032>034-037-058>063-191200-
...CENTRAL COLORADO...

CITY           SKY/WX    TMP DP  RH WIND       PRES   REMARKS
ASPEN          FAIR      49  24  37 S8        29.99S
BUENA VISTA    FAIR      35  25  66 NW5       30.03S WCI  31
COPPER MTN     FAIR      45   5  19 W21G33    30.20F
BERTHOUD PASS  FAIR      37  30  75 W38G58    30.15S
COTTONWOOD PAS FAIR      52  12  20 CALM      30.12S
GUNNISON       FAIR      32  28  85 CALM      30.10S
KREMMLING      FAIR      59  21  23 SW5       29.94S
LEADVILLE      FAIR      44  13  28 VRB7      30.08F
MONARCH PASS   FAIR      37  16  41 SW37G45   30.33F
SALIDA         FAIR      54  21  28 E3        30.07F
SUNLIGHT       FAIR      41  19  42 SW23G38   30.13F
WILKERSON PASS FAIR      39  16  38 SW20G32   30.16F
$$

COZ069>075-191200-
...SAN LUIS VALLEY/SANGRE DE CRISTO MOUNTAINS...

CITY           SKY/WX    TMP DP  RH WIND       PRES   REMARKS
ALAMOSA        FAIR      49  23  36 S15       30.08S
DEL NORTE      FAIR      44  23  42 CALM      30.09F
LA VETA PASS   FAIR      46  18  31 SW28G56   30.22F
SAGUACHE       FAIR      34  28  80 NW3       30.09S
$$

COZ035-036-038>040-191200-
...NORTHERN COLORADO FRONT RANGE...

CITY           SKY/WX    TMP DP  RH WIND       PRES   REMARKS
DENVER INTL AP FAIR      63  23  21 S17       29.75F
DMNS CITY PARK   N/A     59  29  32 E12       29.76S
AURORA         PTCLDY    61  24  24 S14       29.78F
FRONT RANGE AP FAIR      64  23  20 S16       29.77F
ERIE MUNI ARPT FAIR      51  32  47 SW3       29.78F
BOULDER MUN AP FAIR      59  27  29 SW8       29.74S
CENTENNIAL     FAIR      62  22  21 S16       29.79F
BROOMFIELD     FAIR      55  30  38 SW7       29.77F
FORT COLLINS   FAIR      47  40  76 N6        29.74S
LONGMONT       FAIR      54  39  56 E5        29.74S
$$

COZ041-046-047-076>085-087-088-191200-
...PIKES PEAK/PALMER DIVIDE AND SOUTHERN FOOTHILLS...

CITY           SKY/WX    TMP DP  RH WIND       PRES   REMARKS
COLO. SPRINGS  MOCLDY    65  21  18 S9        29.87F
A. F. ACADEMY  FAIR      50  29  43 N6        29.87F
SCHRIEVER AFB  FAIR      55  23  28 SE5       29.88S
CHEYENNE MTN   NOT AVBL
ELLICOTT       NOT AVBL
FALCON         FAIR      61  17  18 S17       29.92S
FORT CARSON    FAIR      64  21  19 S5        29.84F
LIMON            N/A    N/A N/A N/A MISG      29.81F
MONUMENT HILL  FAIR      59  21  23 SW13G22   29.92F
CANON CITY     CLEAR     55  30  38 CALM      29.83F
WALSENBURG     NOT AVBL
TRINIDAD       FAIR      60  30  32 SW13      29.90F
$$

COZ042>045-048>051-090-091-191200-
...NORTHEAST COLORADO...

CITY           SKY/WX    TMP DP  RH WIND       PRES   REMARKS
GREELEY ARPT   FAIR      46  42  86 NW5       29.72F
AKRON          FAIR      63  37  38 SW17G28   29.72F
BURLINGTON     FAIR      52  50  93 S8        29.76S
WRAY           FAIR      59  52  77 S9        29.70F
YUMA           FAIR      50  34  53 SE3       29.70S
STERLING       FAIR      52  46  82 CALM      29.69F
HOLYOKE        FAIR      55  50  82 SE7       29.71S
FORT MORGAN    FAIR      55  39  56 W3        29.72F
$$

COZ086-089-092>099-191200-
...SOUTHEAST COLORADO...

CITY           SKY/WX    TMP DP  RH WIND       PRES   REMARKS
PUEBLO         FAIR      47  31  53 CALM      29.80F
LA JUNTA       FAIR      60  30  32 SW13      29.78S
LAMAR          FAIR      47  41  80 CALM      29.74F
SPRINGFIELD    NOT AVBL
$$




USA.gov is the U.S. government's official web portal to all federal, state and local government web resources and services.